This is the latest recevied weather packets stored in our database for station/object KF7SOJ. If no packets are shown the sender has not sent any weather packets the latest 10 day(s).
| Time | Temp. | Humidity | Pressure | Rain* | Wind** | Luminosity | Snow |
|---|---|---|---|---|---|---|---|
| 1777540296 | 2.22° C | 69% | 938.3 hPa | 0 mm | - | 0 W/m² | - |
| 1777539992 | 2.78° C | 68% | 938.3 hPa | 0 mm | - | 0 W/m² | - |
| 1777539688 | 2.78° C | 67% | 938.1 hPa | 0 mm | - | 0 W/m² | - |
| 1777539384 | 2.78° C | 68% | 938.1 hPa | 0 mm | - | 0 W/m² | - |
| 1777539080 | 2.78° C | 66% | 938.3 hPa | 0 mm | - | 0 W/m² | - |
| 1777538777 | 2.78° C | 63% | 938.2 hPa | 0 mm | - | 0 W/m² | - |
| 1777538472 | 2.78° C | 64% | 938.5 hPa | 0 mm | - | 0 W/m² | - |
| 1777538168 | 2.78° C | 63% | 938.5 hPa | 0 mm | - | 0 W/m² | - |
| 1777537864 | 2.78° C | 60% | 938.4 hPa | 0 mm | - | 0 W/m² | - |
| 1777537560 | 3.33° C | 58% | 938.5 hPa | 0 mm | - | 0 W/m² | - |
| 1777537256 | 2.78° C | 57% | 938.4 hPa | 0 mm | - | 0 W/m² | - |
| 1777536952 | 3.33° C | 58% | 938.5 hPa | 0 mm | - | 0 W/m² | - |
| 1777536650 | 3.33° C | 57% | 938.7 hPa | 0 mm | - | 0 W/m² | - |
| 1777536347 | 3.33° C | 57% | 938.4 hPa | 0 mm | - | 0 W/m² | - |
| 1777536043 | 3.33° C | 57% | 938.5 hPa | 0 mm | - | 0 W/m² | - |
| 1777535738 | 3.89° C | 57% | 938.4 hPa | 0 mm | - | 0 W/m² | - |
| 1777535436 | 4.44° C | 56% | 938.5 hPa | 0 mm | - | 0 W/m² | - |
| 1777535133 | 4.44° C | 58% | 938.5 hPa | 0 mm | - | 0 W/m² | - |
| 1777534829 | 5° C | 60% | 938.5 hPa | 0 mm | - | 0 W/m² | - |
| 1777534526 | 5° C | 58% | 938.3 hPa | 0 mm | - | 0 W/m² | - |
| 1777534224 | 5.56° C | 54% | 938.5 hPa | 0 mm | - | 0 W/m² | - |
| 1777533921 | 5° C | 55% | 938.5 hPa | 0 mm | - | 0 W/m² | - |
| 1777533619 | 5° C | 53% | 938.4 hPa | 0 mm | - | 0 W/m² | - |
| 1777533314 | 5° C | 54% | 938.5 hPa | 0 mm | - | 0 W/m² | - |
| 1777533011 | 4.44° C | 55% | 938.4 hPa | 0 mm | - | 0 W/m² | - |
* Rain latest hour (hover to see other rain measurements)
** Current wind speed in m/s (hover to see current wind gust speed)